• In Germany
  • List of Countries
  • For 7 days
  • Water Temperature
  • Satellite Maps
  • Weather Map
  • Weather Widgets
  • user-avatar
    Login

    Hourly Weather Zheltura

    Today, 22 September, Saturday

    Time Temperature Precipitation Wind Pressure Humidity
    00:00 +2°C° 0 mm 2 mps 704 mmHg 84%
    01:00 +2°C° 0 mm 2 mps 704 mmHg 87%
    02:00 +2°C° 0 mm 2 mps 704 mmHg 87%
    03:00 +2°C° 0 mm 2 mps 705 mmHg 87%
    04:00 +1°C° 0 mm 2 mps 705 mmHg 88%
    05:00 +2°C° 0 mm 2 mps 705 mmHg 84%
    06:00 +3°C° 0 mm 2 mps 706 mmHg 81%
    07:00 +4°C° 0 mm 2 mps 706 mmHg 74%
    08:00 +8°C° 0 mm 1 mps 706 mmHg 65%
    09:00 +10°C° 0 mm 1 mps 706 mmHg 56%
    10:00 +12°C° 0 mm 1 mps 706 mmHg 47%
    11:00 +14°C° 0 mm 1 mps 706 mmHg 45%
    12:00 +15°C° 0 mm 1 mps 706 mmHg 42%
    13:00 +15°C° 0 mm 0 mps 706 mmHg 40%
    14:00 +16°C° 0 mm 1 mps 705 mmHg 41%
    15:00 +15°C° 0 mm 1 mps 705 mmHg 42%
    16:00 +15°C° 0 mm 1 mps 705 mmHg 43%
    17:00 +13°C° 0 mm 1 mps 705 mmHg 52%
    18:00 +10°C° 0 mm 1 mps 705 mmHg 61%
    19:00 +8°C° 0 mm 1 mps 704 mmHg 70%
    20:00 +7°C° 0 mm 1 mps 704 mmHg 73%
    21:00 +6°C° 0 mm 1 mps 704 mmHg 75%
    22:00 +6°C° 0 mm 1 mps 704 mmHg 78%
    23:00 +5°C° 0 mm 1 mps 704 mmHg 79%

    Tomorrow, 23 September, Sunday

    Time Temperature Precipitation Wind Pressure Humidity
    00:00 +5°C° 0 mm 1 mps 704 mmHg 80%
    01:00 +4°C° 0 mm 1 mps 704 mmHg 82%
    02:00 +4°C° 0 mm 1 mps 704 mmHg 82%
    03:00 +4°C° 0 mm 1 mps 704 mmHg 83%
    04:00 +3°C° 0 mm 1 mps 704 mmHg 84%
    05:00 +4°C° 0 mm 1 mps 704 mmHg 80%
    06:00 +5°C° 0 mm 1 mps 704 mmHg 77%
    07:00 +5°C° 0 mm 1 mps 704 mmHg 73%
    08:00 +8°C° 0 mm 1 mps 704 mmHg 65%
    09:00 +10°C° 0 mm 1 mps 703 mmHg 56%
    10:00 +13°C° 0 mm 2 mps 703 mmHg 48%
    11:00 +14°C° 0 mm 2 mps 703 mmHg 45%
    12:00 +15°C° 0 mm 2 mps 702 mmHg 43%
    13:00 +17°C° 0 mm 2 mps 702 mmHg 40%
    14:00 +16°C° 0 mm 2 mps 701 mmHg 41%
    15:00 +16°C° 0 mm 2 mps 701 mmHg 43%
    16:00 +16°C° 0 mm 2 mps 701 mmHg 44%
    17:00 +14°C° 0 mm 2 mps 701 mmHg 53%
    18:00 +12°C° 0 mm 1 mps 700 mmHg 61%
    19:00 +9°C° 0 mm 1 mps 700 mmHg 70%
    20:00 +8°C° 0 mm 0 mps 700 mmHg 71%
    21:00 +7°C° 0 mm 0 mps 700 mmHg 72%
    22:00 +7°C° 0 mm 0 mps 700 mmHg 74%
    23:00 +6°C° 0 mm 0 mps 700 mmHg 75%

    Day after tomorrow, 24 September, Monday

    Time Temperature Precipitation Wind Pressure Humidity
    00:00 +6°C° 0 mm 0 mps 700 mmHg 76%
    01:00 +6°C° 0 mm 0 mps 700 mmHg 77%
    02:00 +6°C° 0 mm 0 mps 700 mmHg 78%
    03:00 +5°C° 0 mm 0 mps 700 mmHg 79%
    04:00 +5°C° 0 mm 0 mps 700 mmHg 79%
    05:00 +6°C° 0 mm 0 mps 700 mmHg 78%
    06:00 +6°C° 0 mm 0 mps 700 mmHg 76%
    07:00 +7°C° 0 mm 0 mps 700 mmHg 75%
    08:00 +10°C° 0 mm 1 mps 700 mmHg 67%
    09:00 +12°C° 0 mm 1 mps 700 mmHg 59%
    10:00 +14°C° 0 mm 1 mps 700 mmHg 51%
    11:00 +15°C° 0 mm 1 mps 700 mmHg 48%
    12:00 +16°C° 0 mm 1 mps 699 mmHg 45%
    13:00 +17°C° 0 mm 2 mps 699 mmHg 43%
    14:00 +17°C° 0 mm 2 mps 699 mmHg 44%
    15:00 +17°C° 0 mm 2 mps 698 mmHg 45%
    16:00 +17°C° 0 mm 2 mps 698 mmHg 46%
    17:00 +15°C° 0.1 mm 1 mps 698 mmHg 55%
    18:00 +13°C° 0.1 mm 1 mps 698 mmHg 64%
    19:00 +10°C° 0.1 mm 1 mps 698 mmHg 72%
    20:00 +10°C° 0 mm 1 mps 698 mmHg 74%
    21:00 +9°C° 0 mm 1 mps 698 mmHg 75%
    22:00 +8°C° 0 mm 0 mps 698 mmHg 77%
    23:00 +8°C° 0 mm 1 mps 698 mmHg 78%

    25 September, Tuesday

    Time Temperature Precipitation Wind Pressure Humidity
    00:00 +8°C° 0 mm 1 mps 698 mmHg 79%
    01:00 +8°C° 0 mm 1 mps 698 mmHg 80%
    02:00 +7°C° 0 mm 0 mps 698 mmHg 81%
    03:00 +6°C° 0 mm 0 mps 698 mmHg 82%
    04:00 +6°C° 0 mm 0 mps 698 mmHg 83%
    05:00 +7°C° 0 mm 0 mps 698 mmHg 81%
    06:00 +7°C° 0 mm 0 mps 698 mmHg 80%
    07:00 +8°C° 0 mm 0 mps 699 mmHg 78%
    08:00 +10°C° 0 mm 0 mps 699 mmHg 70%
    09:00 +14°C° 0 mm 1 mps 699 mmHg 61%
    10:00 +16°C° 0 mm 1 mps 699 mmHg 53%
    11:00 +18°C° 0 mm 1 mps 698 mmHg 51%
    12:00 +18°C° 0 mm 2 mps 698 mmHg 48%
    13:00 +19°C° 0 mm 2 mps 698 mmHg 45%
    14:00 +19°C° 0 mm 2 mps 697 mmHg 47%
    15:00 +18°C° 0 mm 2 mps 697 mmHg 49%
    16:00 +18°C° 0 mm 2 mps 697 mmHg 50%
    17:00 +16°C° 0 mm 2 mps 697 mmHg 57%
    18:00 +14°C° 0 mm 1 mps 697 mmHg 64%
    19:00 +12°C° 0 mm 1 mps 697 mmHg 71%
    20:00 +12°C° 0 mm 1 mps 697 mmHg 71%
    21:00 +12°C° 0 mm 1 mps 697 mmHg 72%
    22:00 +10°C° 0 mm 2 mps 697 mmHg 73%
    23:00 +10°C° 0 mm 2 mps 698 mmHg 74%

    26 September, Wednesday

    Time Temperature Precipitation Wind Pressure Humidity
    00:00 +10°C° 0 mm 2 mps 698 mmHg 76%
    01:00 +9°C° 0 mm 2 mps 698 mmHg 77%
    02:00 +9°C° 0 mm 2 mps 698 mmHg 79%
    03:00 +9°C° 0 mm 2 mps 698 mmHg 81%
    04:00 +9°C° 0 mm 2 mps 698 mmHg 83%
    05:00 +9°C° 0.1 mm 2 mps 699 mmHg 83%
    06:00 +9°C° 0.1 mm 2 mps 699 mmHg 83%
    07:00 +9°C° 0.1 mm 2 mps 700 mmHg 84%
    08:00 +10°C° 0 mm 3 mps 700 mmHg 79%
    09:00 +11°C° 0 mm 3 mps 701 mmHg 73%
    10:00 +12°C° 0 mm 4 mps 701 mmHg 68%
    11:00 +12°C° 0 mm 4 mps 701 mmHg 64%
    12:00 +13°C° 0 mm 4 mps 701 mmHg 61%
    13:00 +14°C° 0 mm 4 mps 701 mmHg 57%
    14:00 +14°C° 0 mm 4 mps 701 mmHg 57%
    15:00 +13°C° 0 mm 4 mps 700 mmHg 56%
    16:00 +13°C° 0 mm 3 mps 700 mmHg 56%
    17:00 +12°C° 0 mm 3 mps 700 mmHg 61%
    18:00 +10°C° 0 mm 2 mps 700 mmHg 67%
    19:00 +9°C° 0 mm 1 mps 701 mmHg 73%
    20:00 +9°C° 0 mm 1 mps 701 mmHg 74%
    21:00 +8°C° 0 mm 1 mps 701 mmHg 76%
    22:00 +7°C° 0 mm 1 mps 701 mmHg 77%
    23:00 +7°C° 0 mm 1 mps 701 mmHg 77%

    27 September, Thursday

    Time Temperature Precipitation Wind Pressure Humidity
    00:00 +7°C° 0 mm 1 mps 701 mmHg 78%
    01:00 +6°C° 0 mm 1 mps 701 mmHg 78%
    02:00 +6°C° 0 mm 1 mps 701 mmHg 78%
    03:00 +6°C° 0 mm 1 mps 701 mmHg 78%
    04:00 +6°C° 0 mm 1 mps 701 mmHg 79%
    05:00 +6°C° 0 mm 1 mps 701 mmHg 77%
    06:00 +7°C° 0 mm 1 mps 701 mmHg 75%
    07:00 +7°C° 0 mm 1 mps 702 mmHg 73%
    08:00 +9°C° 0 mm 1 mps 702 mmHg 65%
    09:00 +12°C° 0 mm 1 mps 702 mmHg 57%
    10:00 +14°C° 0 mm 1 mps 701 mmHg 49%
    11:00 +15°C° 0 mm 1 mps 701 mmHg 47%
    12:00 +16°C° 0 mm 1 mps 701 mmHg 45%
    13:00 +18°C° 0 mm 1 mps 700 mmHg 43%
    14:00 +15°C° 0.8 mm 2 mps 700 mmHg 52%
    15:00 +14°C° 0.8 mm 2 mps 700 mmHg 61%
    16:00 +11°C° 0.8 mm 3 mps 700 mmHg 70%
    17:00 +10°C° 1.1 mm 3 mps 700 mmHg 74%
    18:00 +9°C° 1.1 mm 2 mps 700 mmHg 78%
    19:00 +7°C° 1.1 mm 2 mps 701 mmHg 83%
    20:00 +7°C° 0 mm 2 mps 702 mmHg 83%
    21:00 +6°C° 0 mm 2 mps 702 mmHg 82%
    22:00 +5°C° 0 mm 2 mps 703 mmHg 82%
    23:00 +5°C° 0 mm 2 mps 703 mmHg 83%
    Show more